time, Switch, Flow(0), Analog(2)
yyyy/mm/dd HH:MM:SS.fff, True=FILTERED|False=TOTAL, L/min, V
2023/06/24 09:00:02.820, True, 4.647, 0.122377
2023/06/24 09:00:03.317, True, 4.377, 0.124056
2023/06/24 09:00:03.820, True, 3.979, 0.124514
2023/06/24 09:00:04.325, True, 2.984, 0.123445
2023/06/24 09:00:04.821, True, 2.022, 0.122530
2023/06/24 09:00:05.325, True, 1.990, 0.123827
2023/06/24 09:00:05.829, True, 1.991, 0.122148
2023/06/24 09:00:06.325, True, 2.020, 0.123369
2023/06/24 09:00:06.829, True, 1.990, 0.124666
2023/06/24 09:00:07.333, True, 1.658, 0.121996
2023/06/24 09:00:07.828, True, 2.022, 0.123751
2023/06/24 09:00:08.333, True, 1.658, 0.122988
2023/06/24 09:00:08.837, True, 1.990, 0.124056
2023/06/24 09:00:09.333, True, 1.686, 0.122683
2023/06/24 09:00:09.837, True, 1.988, 0.123903
2023/06/24 09:00:10.341, True, 1.990, 0.122683
2023/06/24 09:00:10.837, True, 2.022, 0.124590
2023/06/24 09:00:11.341, True, 1.658, 0.124437
2023/06/24 09:00:11.845, True, 1.990, 0.124285
2023/06/24 09:00:12.349, True, 1.990, 0.122301
2023/06/24 09:00:12.845, True, 2.022, 0.124437
2023/06/24 09:00:13.349, True, 1.658, 0.124361
2023/06/24 09:00:13.853, True, 1.990, 0.122454
2023/06/24 09:00:14.349, True, 2.022, 0.121996
2023/06/24 09:00:14.853, True, 1.990, 0.121614
2023/06/24 09:00:15.357, True, 1.659, 0.124514
2023/06/24 09:00:15.853, True, 2.020, 0.121157
2023/06/24 09:00:16.356, True, 1.989, 0.122148
2023/06/24 09:00:16.861, True, 1.658, 0.123140
2023/06/24 09:00:17.357, True, 2.022, 0.122835
2023/06/24 09:00:17.861, True, 1.993, 0.122606
2023/06/24 09:00:18.365, True, 1.987, 0.122072
2023/06/24 09:00:18.861, True, 2.021, 0.122454
2023/06/24 09:00:19.365, True, 1.990, 0.123522
2023/06/24 09:00:19.861, True, 2.021, 0.122835
2023/06/24 09:00:20.365, True, 1.990, 0.122759
2023/06/24 09:00:20.869, True, 1.990, 0.122988
2023/06/24 09:00:21.365, True, 2.022, 0.122225
2023/06/24 09:00:21.869, True, 1.990, 0.123445
2023/06/24 09:00:22.373, True, 1.658, 0.123903
2023/06/24 09:00:22.869, True, 2.024, 0.124666
2023/06/24 09:00:23.372, True, 1.657, 0.125048
2023/06/24 09:00:23.877, True, 1.990, 0.124208
2023/06/24 09:00:24.373, True, 2.022, 0.123674
2023/06/24 09:00:24.877, True, 1.989, 0.123522
2023/06/24 09:00:25.381, True, 1.990, 0.121920
2023/06/24 09:00:25.877, True, 1.685, 0.123674
2023/06/24 09:00:26.381, True, 1.990, 0.123980
2023/06/24 09:00:26.885, True, 1.990, 0.124361
2023/06/24 09:00:27.381, True, 2.022, 0.124361
2023/06/24 09:00:27.885, True, 1.993, 0.124437
2023/06/24 09:00:28.389, True, 1.987, 0.122301
2023/06/24 09:00:28.885, True, 1.685, 0.123293
2023/06/24 09:00:29.389, True, 1.990, 0.125124
2023/06/24 09:00:29.893, True, 1.993, 0.123217
2023/06/24 09:00:30.389, True, 2.018, 0.124819
2023/06/24 09:00:30.893, True, 1.990, 0.120623
2023/06/24 09:00:31.397, True, 1.990, 0.124132
2023/06/24 09:00:31.893, True, 2.022, 0.121538
2023/06/24 09:00:32.397, True, 1.658, 0.121233
2023/06/24 09:00:32.901, True, 1.990, 0.123445
2023/06/24 09:00:33.397, True, 2.022, 0.123598
2023/06/24 09:00:33.901, True, 1.990, 0.122606
2023/06/24 09:00:34.405, True, 1.990, 0.123522
2023/06/24 09:00:34.901, True, 1.685, 0.125582
2023/06/24 09:00:35.405, True, 1.990, 0.125429
2023/06/24 09:00:35.909, True, 1.990, 0.126116
2023/06/24 09:00:36.413, True, 1.989, 0.124056
2023/06/24 09:00:36.909, True, 1.688, 0.123980
2023/06/24 09:00:37.412, True, 1.986, 0.123751
2023/06/24 09:00:37.917, True, 1.990, 0.123369
2023/06/24 09:00:38.413, True, 2.022, 0.127642
2023/06/24 09:00:38.916, True, 1.658, 0.125963
2023/06/24 09:00:39.420, True, 1.989, 0.124208
2023/06/24 09:00:39.925, True, 1.990, 0.127260
2023/06/24 09:00:40.421, True, 2.022, 0.126192
2023/06/24 09:00:40.925, True, 1.990, 0.128176
2023/06/24 09:00:41.429, True, 1.990, 0.126650
2023/06/24 09:00:41.925, True, 2.022, 0.127947
2023/06/24 09:00:42.429, True, 1.658, 0.129931
2023/06/24 09:00:42.925, True, 2.022, 0.127718
2023/06/24 09:00:43.429, True, 1.990, 0.128481
2023/06/24 09:00:43.932, True, 1.990, 0.130541
2023/06/24 09:00:44.429, True, 2.022, 0.129015
2023/06/24 09:00:44.933, True, 1.658, 0.128252
2023/06/24 09:00:45.437, True, 1.990, 0.130236
2023/06/24 09:00:45.941, True, 1.990, 0.132296
2023/06/24 09:00:46.436, True, 1.685, 0.132677
2023/06/24 09:00:46.941, True, 1.990, 0.132677
2023/06/24 09:00:47.445, True, 1.990, 0.131380
2023/06/24 09:00:47.941, True, 2.022, 0.132830
2023/06/24 09:00:48.445, True, 1.990, 0.133440
2023/06/24 09:00:48.949, True, 1.658, 0.134203
2023/06/24 09:00:49.445, True, 2.022, 0.133440
2023/06/24 09:00:49.948, True, 1.990, 0.135042
2023/06/24 09:00:50.453, True, 1.990, 0.134203
2023/06/24 09:00:50.948, True, 2.023, 0.134127
2023/06/24 09:00:51.453, True, 1.657, 0.134508
2023/06/24 09:00:51.956, True, 1.994, 0.134737
2023/06/24 09:00:52.453, True, 2.018, 0.135271
2023/06/24 09:00:52.956, True, 1.659, 0.135119
2023/06/24 09:00:53.460, True, 1.989, 0.134813
2023/06/24 09:00:53.956, True, 2.022, 0.133440
2023/06/24 09:00:54.460, True, 1.989, 0.133669
2023/06/24 09:00:54.965, True, 1.990, 0.135576
2023/06/24 09:00:55.460, True, 2.022, 0.133135
2023/06/24 09:00:55.964, True, 1.989, 0.134051
2023/06/24 09:00:56.461, True, 1.684, 0.133516
2023/06/24 09:00:56.965, True, 1.991, 0.133135
2023/06/24 09:00:57.468, True, 1.988, 0.135500
2023/06/24 09:00:57.973, True, 1.991, 0.136187
2023/06/24 09:00:58.469, True, 2.022, 0.133364
2023/06/24 09:00:58.973, True, 1.989, 0.133974
2023/06/24 09:00:59.476, True, 1.990, 0.136034
2023/06/24 09:00:59.972, True, 2.022, 0.134432
2023/06/24 09:01:00.477, True, 1.658, 0.136492
2023/06/24 09:01:00.981, True, 1.990, 0.134737
2023/06/24 09:01:01.477, True, 1.686, 0.135119
2023/06/24 09:01:01.981, True, 1.989, 0.135119
2023/06/24 09:01:02.485, True, 1.987, 0.136110
2023/06/24 09:01:02.981, True, 2.025, 0.135424
2023/06/24 09:01:03.484, True, 1.989, 0.137407
2023/06/24 09:01:03.989, True, 1.989, 0.135805
2023/06/24 09:01:04.493, True, 1.990, 0.136950
2023/06/24 09:01:04.989, True, 1.682, 0.134966
2023/06/24 09:01:05.493, True, 1.993, 0.135805
2023/06/24 09:01:05.997, True, 1.986, 0.138705
2023/06/24 09:01:06.493, True, 2.022, 0.136339
2023/06/24 09:01:06.996, True, 1.990, 0.135882
2023/06/24 09:01:07.501, True, 1.992, 0.136187
2023/06/24 09:01:07.997, True, 2.019, 0.137636
2023/06/24 09:01:08.501, True, 1.658, 0.135729
2023/06/24 09:01:09.004, True, 1.990, 0.135576
2023/06/24 09:01:09.501, True, 2.022, 0.136339
2023/06/24 09:01:10.005, True, 1.990, 0.135195
2023/06/24 09:01:10.501, True, 2.021, 0.137255
2023/06/24 09:01:11.005, True, 1.658, 0.133440
2023/06/24 09:01:11.509, True, 1.990, 0.135958
2023/06/24 09:01:12.013, True, 1.990, 0.137026
2023/06/24 09:01:12.509, True, 2.021, 0.135729
2023/06/24 09:01:13.013, True, 1.990, 0.134813
2023/06/24 09:01:13.517, True, 1.990, 0.135119
2023/06/24 09:01:14.013, True, 2.022, 0.136721
2023/06/24 09:01:14.516, True, 1.659, 0.135195
2023/06/24 09:01:15.021, True, 1.988, 0.136034
2023/06/24 09:01:15.517, True, 2.022, 0.136492
2023/06/24 09:01:16.021, True, 1.990, 0.134051
2023/06/24 09:01:16.516, True, 1.685, 0.136416
2023/06/24 09:01:17.021, True, 1.990, 0.135119
2023/06/24 09:01:17.524, True, 1.990, 0.133898
2023/06/24 09:01:18.021, True, 2.021, 0.136797
2023/06/24 09:01:18.524, True, 1.992, 0.136339
2023/06/24 09:01:19.028, True, 1.989, 0.137026
2023/06/24 09:01:19.525, True, 2.020, 0.134051
2023/06/24 09:01:20.028, True, 1.993, 0.134890
2023/06/24 09:01:20.533, True, 1.986, 0.136187
2023/06/24 09:01:21.029, True, 1.685, 0.135271
2023/06/24 09:01:21.533, True, 1.989, 0.135119
2023/06/24 09:01:22.037, True, 1.992, 0.135653
2023/06/24 09:01:22.533, True, 2.020, 0.134585
2023/06/24 09:01:23.037, True, 1.991, 0.136339
2023/06/24 09:01:23.540, True, 1.991, 0.136568
2023/06/24 09:01:24.037, True, 1.682, 0.137636
2023/06/24 09:01:24.541, True, 1.990, 0.134508
2023/06/24 09:01:25.045, True, 1.658, 0.135500
2023/06/24 09:01:25.549, True, 1.990, 0.135424
2023/06/24 09:01:26.045, True, 1.685, 0.135195
2023/06/24 09:01:26.548, True, 1.989, 0.135653
2023/06/24 09:01:27.053, True, 1.989, 0.133898
2023/06/24 09:01:27.549, True, 1.685, 0.136263
2023/06/24 09:01:28.052, True, 1.990, 0.135882
2023/06/24 09:01:28.557, True, 1.658, 0.135882
2023/06/24 09:01:29.061, True, 1.991, 0.134508
2023/06/24 09:01:29.557, True, 2.020, 0.135882
2023/06/24 09:01:30.061, True, 1.658, 0.134890
2023/06/24 09:01:30.565, True, 1.990, 0.135195
2023/06/24 09:01:31.061, True, 2.022, 0.135042
2023/06/24 09:01:31.565, True, 1.990, 0.132601
2023/06/24 09:01:32.069, True, 1.658, 0.134661
2023/06/24 09:01:32.564, True, 2.021, 0.136263
2023/06/24 09:01:33.069, True, 1.992, 0.133745
2023/06/24 09:01:33.572, True, 1.656, 0.133440
2023/06/24 09:01:34.077, True, 1.989, 0.133440
2023/06/24 09:01:34.573, True, 2.022, 0.134737
2023/06/24 09:01:35.077, True, 1.990, 0.135042
2023/06/24 09:01:35.573, True, 2.022, 0.134508
2023/06/24 09:01:36.076, True, 1.990, 0.135729
2023/06/24 09:01:36.581, True, 1.658, 0.132982
2023/06/24 09:01:37.084, True, 1.990, 0.134585
2023/06/24 09:01:37.581, True, 2.021, 0.133288
2023/06/24 09:01:38.085, True, 1.990, 0.134279
2023/06/24 09:01:38.581, True, 2.022, 0.135195
2023/06/24 09:01:39.084, True, 1.990, 0.134585
2023/06/24 09:01:39.589, True, 1.658, 0.135729
2023/06/24 09:01:40.092, True, 1.990, 0.135119
2023/06/24 09:01:40.588, True, 2.021, 0.135882
2023/06/24 09:01:41.093, True, 1.991, 0.133898
2023/06/24 09:01:41.596, True, 1.988, 0.133593
2023/06/24 09:01:42.093, True, 1.685, 0.134661
2023/06/24 09:01:42.597, True, 1.990, 0.132601
2023/06/24 09:01:43.101, True, 1.990, 0.131685
2023/06/24 09:01:43.597, True, 2.022, 0.134890
2023/06/24 09:01:44.101, True, 1.993, 0.133593
2023/06/24 09:01:44.605, True, 1.986, 0.136187
2023/06/24 09:01:45.101, True, 2.022, 0.134890
2023/06/24 09:01:45.605, True, 1.989, 0.133898
2023/06/24 09:01:46.109, True, 1.992, 0.132219
2023/06/24 09:01:46.605, True, 1.683, 0.132982
2023/06/24 09:01:47.109, True, 1.989, 0.133822
2023/06/24 09:01:47.613, True, 1.990, 0.136797
2023/06/24 09:01:48.109, True, 2.022, 0.135195
2023/06/24 09:01:48.613, True, 1.990, 0.132906
2023/06/24 09:01:49.117, True, 1.990, 0.133898
2023/06/24 09:01:49.613, True, 2.022, 0.133364
2023/06/24 09:01:50.117, True, 1.989, 0.132830
2023/06/24 09:01:50.620, True, 1.990, 0.136721
2023/06/24 09:01:51.125, True, 1.990, 0.130770
2023/06/24 09:01:51.620, True, 2.022, 0.132830
2023/06/24 09:01:52.125, True, 1.658, 0.132525
2023/06/24 09:01:52.629, True, 1.990, 0.131533
2023/06/24 09:01:53.125, True, 2.022, 0.133974
2023/06/24 09:01:53.629, True, 1.658, 0.132601
2023/06/24 09:01:54.133, True, 1.990, 0.133516
2023/06/24 09:01:54.629, True, 2.022, 0.133593
2023/06/24 09:01:55.132, True, 1.990, 0.134051
2023/06/24 09:01:55.636, True, 1.990, 0.132906
2023/06/24 09:01:56.141, True, 1.990, 0.130694
2023/06/24 09:01:56.637, True, 1.685, 0.134432
2023/06/24 09:01:57.141, True, 1.990, 0.134051
2023/06/24 09:01:57.645, True, 1.990, 0.131991
2023/06/24 09:01:58.141, True, 2.021, 0.131304
2023/06/24 09:01:58.645, True, 1.990, 0.131151
2023/06/24 09:01:59.149, True, 1.658, 0.132067
2023/06/24 09:01:59.644, True, 2.024, 0.131380
2023/06/24 09:02:00.149, True, 1.988, 0.135958
2023/06/24 09:02:00.653, True, 1.991, 0.135195
2023/06/24 09:02:01.149, True, 2.021, 0.133898
2023/06/24 09:02:01.653, True, 1.658, 0.135729
2023/06/24 09:02:02.157, True, 1.658, 0.133059
2023/06/24 09:02:02.653, True, 2.022, 0.131914
2023/06/24 09:02:03.156, True, 1.991, 0.133593
2023/06/24 09:02:03.660, True, 1.660, 0.134737
2023/06/24 09:02:04.156, True, 2.020, 0.133288
2023/06/24 09:02:04.660, True, 1.658, 0.131075
2023/06/24 09:02:05.165, True, 1.987, 0.132143
2023/06/24 09:02:05.661, True, 1.685, 0.133593
2023/06/24 09:02:06.165, True, 1.990, 0.131075
2023/06/24 09:02:06.669, True, 1.993, 0.130846
2023/06/24 09:02:07.165, True, 1.682, 0.132601
2023/06/24 09:02:07.669, True, 1.990, 0.132525
2023/06/24 09:02:08.165, True, 2.022, 0.131151
2023/06/24 09:02:08.668, True, 1.659, 0.131304
2023/06/24 09:02:09.173, True, 1.989, 0.133059
2023/06/24 09:02:09.668, True, 2.022, 0.134585
2023/06/24 09:02:10.173, True, 1.990, 0.132219
2023/06/24 09:02:10.677, True, 1.990, 0.132143
2023/06/24 09:02:11.173, True, 2.022, 0.130617
2023/06/24 09:02:11.676, True, 1.990, 0.130541
2023/06/24 09:02:12.181, True, 1.990, 0.131533
2023/06/24 09:02:12.677, True, 1.685, 0.132677
2023/06/24 09:02:13.180, True, 1.989, 0.131609
2023/06/24 09:02:13.685, True, 1.990, 0.132219
2023/06/24 09:02:14.181, True, 2.022, 0.130846
2023/06/24 09:02:14.685, True, 1.989, 0.130007
2023/06/24 09:02:15.189, True, 1.989, 0.131609
2023/06/24 09:02:15.684, True, 1.685, 0.130999
2023/06/24 09:02:16.189, True, 1.990, 0.133440
2023/06/24 09:02:16.693, True, 1.990, 0.129778
2023/06/24 09:02:17.189, True, 1.685, 0.134279
2023/06/24 09:02:17.692, True, 1.990, 0.129625
2023/06/24 09:02:18.189, True, 2.022, 0.130922
2023/06/24 09:02:18.693, True, 1.990, 0.132143
2023/06/24 09:02:19.196, True, 1.990, 0.131456
2023/06/24 09:02:19.692, True, 2.022, 0.131609
2023/06/24 09:02:20.197, True, 1.658, 0.129702
2023/06/24 09:02:20.700, True, 1.990, 0.131609
2023/06/24 09:02:21.196, True, 2.022, 0.131380
2023/06/24 09:02:21.700, True, 1.990, 0.131533
2023/06/24 09:02:22.204, True, 1.989, 0.129168
2023/06/24 09:02:22.700, True, 2.022, 0.131304
2023/06/24 09:02:23.204, True, 1.658, 0.130617
2023/06/24 09:02:23.708, True, 1.990, 0.131762
2023/06/24 09:02:24.204, True, 2.022, 0.131380
2023/06/24 09:02:24.708, True, 1.990, 0.132296
2023/06/24 09:02:25.212, True, 1.658, 0.131075
2023/06/24 09:02:25.708, True, 2.022, 0.130083
2023/06/24 09:02:26.212, True, 1.990, 0.131762
2023/06/24 09:02:26.716, True, 1.990, 0.130999
2023/06/24 09:02:27.212, True, 2.022, 0.131685
2023/06/24 09:02:27.716, True, 1.993, 0.130541
2023/06/24 09:02:28.212, True, 1.682, 0.128710
2023/06/24 09:02:28.716, True, 1.990, 0.132677
2023/06/24 09:02:29.220, True, 1.990, 0.132372
2023/06/24 09:02:29.716, True, 1.684, 0.131304
2023/06/24 09:02:30.220, True, 1.990, 0.130617
2023/06/24 09:02:30.724, True, 1.990, 0.132219
2023/06/24 09:02:31.220, True, 1.687, 0.131533
2023/06/24 09:02:31.724, True, 1.987, 0.131838
2023/06/24 09:02:32.228, True, 1.990, 0.130617
2023/06/24 09:02:32.732, True, 1.990, 0.130236
2023/06/24 09:02:33.228, True, 1.687, 0.130617
2023/06/24 09:02:33.732, True, 1.987, 0.131762
2023/06/24 09:02:34.237, True, 1.658, 0.130541
2023/06/24 09:02:34.732, True, 2.022, 0.131838
2023/06/24 09:02:35.236, True, 1.992, 0.131456
2023/06/24 09:02:35.740, True, 1.658, 0.130083
2023/06/24 09:02:36.236, True, 2.019, 0.131304
2023/06/24 09:02:36.740, True, 1.989, 0.132219
2023/06/24 09:02:37.244, True, 1.990, 0.132525
2023/06/24 09:02:37.740, True, 2.021, 0.130083
2023/06/24 09:02:38.244, True, 1.990, 0.131380
2023/06/24 09:02:38.748, True, 1.658, 0.130083
2023/06/24 09:02:39.244, True, 2.022, 0.130541
2023/06/24 09:02:39.748, True, 1.658, 0.132067
2023/06/24 09:02:40.244, True, 2.022, 0.130694
2023/06/24 09:02:40.748, True, 1.990, 0.130465
2023/06/24 09:02:41.252, True, 1.658, 0.131762
2023/06/24 09:02:41.748, True, 2.022, 0.130083
2023/06/24 09:02:42.252, True, 1.990, 0.129625
2023/06/24 09:02:42.756, True, 1.990, 0.129931
2023/06/24 09:02:43.252, True, 2.022, 0.130846
2023/06/24 09:02:43.756, True, 1.990, 0.130388
2023/06/24 09:02:44.260, True, 1.989, 0.130083
2023/06/24 09:02:44.756, True, 1.685, 0.131304
2023/06/24 09:02:45.260, True, 1.990, 0.132601
2023/06/24 09:02:45.756, True, 2.024, 0.130007
2023/06/24 09:02:46.260, True, 1.657, 0.130388
2023/06/24 09:02:46.764, True, 1.990, 0.131380
2023/06/24 09:02:47.260, True, 2.022, 0.129778
2023/06/24 09:02:47.764, True, 1.658, 0.129702
2023/06/24 09:02:48.268, True, 1.990, 0.129473
2023/06/24 09:02:48.764, True, 2.022, 0.128710
2023/06/24 09:02:49.268, True, 1.989, 0.132143
2023/06/24 09:02:49.772, True, 1.990, 0.129091
2023/06/24 09:02:50.268, True, 1.685, 0.130999
2023/06/24 09:02:50.772, True, 1.990, 0.130694
2023/06/24 09:02:51.268, True, 2.022, 0.128862
2023/06/24 09:02:51.772, True, 1.658, 0.131075
2023/06/24 09:02:52.276, True, 1.990, 0.130159
2023/06/24 09:02:52.780, True, 1.989, 0.130999
2023/06/24 09:02:53.276, True, 2.022, 0.129320
2023/06/24 09:02:53.780, True, 1.658, 0.129625
2023/06/24 09:02:54.284, True, 1.990, 0.130083
2023/06/24 09:02:54.780, True, 2.022, 0.129549
2023/06/24 09:02:55.284, True, 1.990, 0.129931
2023/06/24 09:02:55.788, True, 1.990, 0.130922
2023/06/24 09:02:56.284, True, 2.021, 0.130922
2023/06/24 09:02:56.788, True, 1.990, 0.130846
2023/06/24 09:02:57.292, True, 1.990, 0.128252
2023/06/24 09:02:57.788, True, 2.022, 0.131991
2023/06/24 09:02:58.292, True, 1.990, 0.129778
2023/06/24 09:02:58.796, True, 1.658, 0.128786
2023/06/24 09:02:59.292, True, 2.022, 0.130770
2023/06/24 09:02:59.796, True, 1.990, 0.129625
2023/06/24 09:03:00.300, True, 1.990, 0.128405
2023/06/24 09:03:00.796, True, 1.686, 0.130388
2023/06/24 09:03:01.300, True, 1.991, 0.129091
2023/06/24 09:03:01.804, True, 1.987, 0.130007
2023/06/24 09:03:02.300, True, 2.022, 0.132219
2023/06/24 09:03:02.804, True, 1.990, 0.130159
2023/06/24 09:03:03.308, True, 1.658, 0.129778
2023/06/24 09:03:03.804, True, 2.021, 0.127871
2023/06/24 09:03:04.308, True, 1.990, 0.129091
2023/06/24 09:03:04.812, True, 1.990, 0.129244
2023/06/24 09:03:05.308, True, 1.685, 0.129168
2023/06/24 09:03:05.812, True, 1.989, 0.128786
2023/06/24 09:03:06.316, True, 1.990, 0.128252
2023/06/24 09:03:06.820, True, 1.989, 0.128862
2023/06/24 09:03:07.316, True, 1.685, 0.129778
2023/06/24 09:03:07.820, True, 1.991, 0.129397
2023/06/24 09:03:08.316, True, 2.021, 0.129473
2023/06/24 09:03:08.820, True, 1.989, 0.128405
2023/06/24 09:03:09.324, True, 1.990, 0.130922
2023/06/24 09:03:09.820, True, 2.023, 0.129625
2023/06/24 09:03:10.324, True, 1.988, 0.127947
2023/06/24 09:03:10.828, True, 1.658, 0.128710
2023/06/24 09:03:11.324, True, 2.022, 0.130465
2023/06/24 09:03:11.828, True, 1.989, 0.128634
2023/06/24 09:03:12.332, True, 1.991, 0.126421
2023/06/24 09:03:12.828, True, 2.020, 0.128939
2023/06/24 09:03:13.332, True, 1.990, 0.128176
2023/06/24 09:03:13.836, True, 1.990, 0.128023
2023/06/24 09:03:14.332, True, 2.022, 0.128786
2023/06/24 09:03:14.836, True, 1.989, 0.128176
2023/06/24 09:03:15.340, True, 1.990, 0.129091
2023/06/24 09:03:15.836, True, 2.022, 0.129931
2023/06/24 09:03:16.340, True, 1.993, 0.128023
2023/06/24 09:03:16.844, True, 1.986, 0.129015
2023/06/24 09:03:17.340, True, 2.022, 0.128252
2023/06/24 09:03:17.844, True, 1.989, 0.128252
2023/06/24 09:03:18.348, True, 1.658, 0.129625
2023/06/24 09:03:18.852, True, 1.990, 0.129778
2023/06/24 09:03:19.348, True, 2.022, 0.127871
2023/06/24 09:03:19.852, True, 1.990, 0.130541
2023/06/24 09:03:20.356, True, 1.990, 0.128405
2023/06/24 09:03:20.852, True, 1.685, 0.129778
2023/06/24 09:03:21.356, True, 1.990, 0.128710
2023/06/24 09:03:21.861, True, 1.993, 0.130236
2023/06/24 09:03:22.356, True, 2.018, 0.129473
2023/06/24 09:03:22.860, True, 1.990, 0.128634
2023/06/24 09:03:23.364, True, 1.990, 0.129244
2023/06/24 09:03:23.868, True, 1.992, 0.127794
2023/06/24 09:03:24.364, True, 1.686, 0.126802
2023/06/24 09:03:24.868, True, 1.986, 0.129549
2023/06/24 09:03:25.364, True, 2.022, 0.129320
2023/06/24 09:03:25.868, True, 1.990, 0.126650
2023/06/24 09:03:26.372, True, 1.658, 0.129854
2023/06/24 09:03:26.876, True, 1.659, 0.128557
2023/06/24 09:03:27.372, True, 2.020, 0.130694
2023/06/24 09:03:27.876, True, 1.990, 0.130541
2023/06/24 09:03:28.380, True, 1.989, 0.128557
2023/06/24 09:03:28.876, True, 1.685, 0.129015
2023/06/24 09:03:29.380, True, 1.989, 0.128023
2023/06/24 09:03:29.884, True, 1.990, 0.129931
2023/06/24 09:03:30.380, True, 1.685, 0.126345
2023/06/24 09:03:30.884, True, 1.989, 0.130083
2023/06/24 09:03:31.388, True, 1.991, 0.128328
2023/06/24 09:03:31.884, True, 2.023, 0.128710
2023/06/24 09:03:32.388, True, 1.988, 0.127108
2023/06/24 09:03:32.884, True, 2.022, 0.125353
2023/06/24 09:03:33.388, True, 1.658, 0.127108
2023/06/24 09:03:33.892, True, 1.989, 0.126421
2023/06/24 09:03:34.388, True, 2.022, 0.126955
2023/06/24 09:03:34.892, True, 1.992, 0.127489
2023/06/24 09:03:35.396, True, 1.987, 0.129015
2023/06/24 09:03:35.892, True, 1.685, 0.128481
2023/06/24 09:03:36.396, True, 1.990, 0.127871
2023/06/24 09:03:36.900, True, 1.990, 0.125353
2023/06/24 09:03:37.396, True, 2.022, 0.129931
2023/06/24 09:03:37.900, True, 1.990, 0.126574
2023/06/24 09:03:38.404, True, 1.989, 0.125734
2023/06/24 09:03:38.908, True, 1.990, 0.129320
2023/06/24 09:03:39.404, True, 2.022, 0.125048
2023/06/24 09:03:39.908, True, 1.658, 0.129549
2023/06/24 09:03:40.412, True, 1.989, 0.126268
2023/06/24 09:03:40.908, True, 2.022, 0.128939
2023/06/24 09:03:41.412, True, 1.991, 0.126574
2023/06/24 09:03:41.916, True, 1.988, 0.128328
2023/06/24 09:03:42.412, True, 1.685, 0.126040
2023/06/24 09:03:42.916, True, 1.990, 0.127184
2023/06/24 09:03:43.420, True, 1.989, 0.127871
2023/06/24 09:03:43.916, True, 1.686, 0.128939
2023/06/24 09:03:44.420, True, 1.988, 0.128710
2023/06/24 09:03:44.924, True, 1.990, 0.127565
2023/06/24 09:03:45.420, True, 2.022, 0.127718
2023/06/24 09:03:45.924, True, 1.990, 0.128099
2023/06/24 09:03:46.420, True, 2.022, 0.127871
2023/06/24 09:03:46.924, True, 1.989, 0.128023
2023/06/24 09:03:47.428, True, 1.990, 0.127108
2023/06/24 09:03:47.924, True, 1.684, 0.130007
2023/06/24 09:03:48.428, True, 1.990, 0.128099
2023/06/24 09:03:48.932, True, 1.990, 0.127642
2023/06/24 09:03:49.428, True, 1.685, 0.126574
2023/06/24 09:03:49.932, True, 1.990, 0.125963
2023/06/24 09:03:50.436, True, 1.990, 0.129702
2023/06/24 09:03:50.940, True, 1.990, 0.128634
2023/06/24 09:03:51.436, True, 2.022, 0.128099
2023/06/24 09:03:51.940, True, 1.660, 0.128786
2023/06/24 09:03:52.444, True, 1.656, 0.127489
2023/06/24 09:03:52.940, True, 2.021, 0.125658
2023/06/24 09:03:53.444, True, 1.989, 0.126574
2023/06/24 09:03:53.948, True, 1.990, 0.127337
2023/06/24 09:03:54.444, True, 2.023, 0.127718
2023/06/24 09:03:54.948, True, 1.988, 0.128328
2023/06/24 09:03:55.452, True, 1.990, 0.125734
2023/06/24 09:03:55.948, True, 1.685, 0.128099
2023/06/24 09:03:56.452, True, 1.990, 0.129778
2023/06/24 09:03:56.956, True, 1.990, 0.127794
2023/06/24 09:03:57.452, True, 1.684, 0.126040
2023/06/24 09:03:57.956, True, 1.659, 0.128939
2023/06/24 09:03:58.459, True, 1.991, 0.127947
2023/06/24 09:03:58.956, True, 2.022, 0.127718
2023/06/24 09:03:59.460, True, 1.987, 0.125811
2023/06/24 09:03:59.956, True, 2.022, 0.127794
2023/06/24 09:04:00.460, True, 1.659, 0.127794
2023/06/24 09:04:00.964, True, 1.989, 0.125734
2023/06/24 09:04:01.460, True, 2.021, 0.126192
2023/06/24 09:04:01.964, True, 1.992, 0.129473
2023/06/24 09:04:02.468, True, 1.656, 0.127260
2023/06/24 09:04:02.964, True, 2.021, 0.126192
2023/06/24 09:04:03.468, True, 1.992, 0.126574
2023/06/24 09:04:03.972, True, 1.989, 0.129091
2023/06/24 09:04:04.468, True, 1.685, 0.127871
2023/06/24 09:04:04.972, True, 1.990, 0.129320
2023/06/24 09:04:05.476, True, 1.989, 0.128405
2023/06/24 09:04:05.972, True, 1.684, 0.126802
2023/06/24 09:04:06.476, True, 1.988, 0.127031
2023/06/24 09:04:06.980, True, 1.990, 0.125734
2023/06/24 09:04:07.484, True, 1.992, 0.128099
2023/06/24 09:04:07.980, True, 2.019, 0.125811
2023/06/24 09:04:08.484, True, 1.991, 0.125811
2023/06/24 09:04:08.988, True, 1.989, 0.125963
2023/06/24 09:04:09.484, True, 1.685, 0.128023
2023/06/24 09:04:09.988, True, 1.993, 0.125887
2023/06/24 09:04:10.492, True, 1.986, 0.126955
2023/06/24 09:04:10.988, True, 2.022, 0.127565
2023/06/24 09:04:11.492, True, 1.661, 0.127108
2023/06/24 09:04:11.996, True, 1.986, 0.128023